DW7918 Weather Reports


Display with metric or nautical units.
time (UTC)temp
F
wind
direction
speed
MPH
gust
MPH
rain 1hr
in
rain 24hr
in
rain mn
in
humidity
%
barometer
mb
20260504141203 61 305 6.0 10.0 0.00 0.00 0.00 52 1004.3
20260504141003 60 305 6.0 10.0 0.00 0.00 0.00 51 1004.3
20260504140803 60 306 6.0 10.0 0.00 0.00 0.00 52 1004.3
20260504140603 60 306 6.0 10.0 0.00 0.00 0.00 53 1004.3
20260504140403 60 307 6.0 10.0 0.00 0.00 0.00 53 1004.3
20260504140203 60 307 6.0 10.0 0.00 0.00 0.00 54 1004.3
20260504130803 55 298 5.0 8.0 0.00 0.00 0.00 57 1004.7
20260504130603 55 298 5.0 8.0 0.00 0.00 0.00 57 1004.7
20260504130403 55 299 5.0 9.0 0.00 0.00 0.00 57 1004.8
20260504130224 55 299 5.0 9.0 0.00 0.00 0.00 58 1004.8
20260504120306 51 302 6.0 11.0 0.00 0.00 0.00 61 1005.1
20260504110624 48 295 2.0 6.0 0.00 0.00 0.00 63 1004.7
20260504110403 48 294 2.0 6.0 0.00 0.00 0.00 63 1004.6
20260504110203 48 294 2.0 6.0 0.00 0.00 0.00 63 1004.6
20260504100603 48 298 2.0 5.0 0.00 0.00 0.00 63 1004.5
20260504100403 48 296 2.0 5.0 0.00 0.00 0.00 63 1004.5
20260504100203 48 296 2.0 5.0 0.00 0.00 0.00 63 1004.5
20260504081824 46 0 0.0 0.0 0.00 0.00 0.00 63 1005.0
20260504081603 46 0 0.0 0.0 0.00 0.00 0.00 63 1005.1
20260504081424 46 0 0.0 0.0 0.00 0.00 0.00 64 1005.1
20260504081203 46 0 0.0 0.0 0.00 0.00 0.00 64 1005.1
20260504081003 46 0 0.0 0.0 0.00 0.00 0.00 64 1005.1
20260504080803 46 0 0.0 0.0 0.00 0.00 0.00 64 1005.1
20260504080624 46 0 0.0 0.0 0.00 0.00 0.00 64 1005.1
20260504080403 46 0 0.0 0.0 0.00 0.00 0.00 64 1005.1
20260504080224 46 0 0.0 0.0 0.00 0.00 0.00 64 1005.1
20260504070403 46 0 0.0 0.0 0.00 0.00 0.00 65 1005.8
20260504070203 46 0 0.0 0.0 0.00 0.00 0.00 64 1005.8
20260504060203 48 309 1.0 2.0 0.00 0.00 0.00 63 1006.7
20260504050603 49 298 2.0 5.0 0.00 0.00 0.00 62 1007.4
20260504050403 49 297 2.0 6.0 0.00 0.00 0.00 62 1007.4
20260504050203 49 296 2.0 6.0 0.00 0.00 0.00 62 1007.4
20260504050003 49 298 2.0 6.0 0.00 0.00 0.00 62 1007.4
20260504045803 49 297 2.0 6.0 0.00 0.00 0.00 61 1007.4
20260504045603 49 297 2.0 6.0 0.00 0.00 0.00 62 1007.4
20260504045403 49 296 2.0 5.0 0.00 0.00 0.00 62 1007.4
20260504045224 49 296 2.0 5.0 0.00 0.00 0.00 62 1007.4
20260504045003 49 295 2.0 5.0 0.00 0.00 0.00 62 1007.4
20260504044824 49 295 2.0 5.0 0.00 0.00 0.00 61 1007.4
20260504044603 49 291 2.0 5.0 0.00 0.00 0.00 61 1007.4
20260504044424 49 290 2.0 5.0 0.00 0.00 0.00 61 1007.4
20260504044203 49 288 2.0 4.0 0.00 0.00 0.00 61 1007.5
20260504044003 49 288 2.0 4.0 0.00 0.00 0.00 61 1007.5
20260504043803 49 290 2.0 4.0 0.00 0.00 0.00 61 1007.5
20260504043603 50 292 2.0 4.0 0.00 0.00 0.00 61 1007.5
20260504043403 49 293 2.0 4.0 0.00 0.00 0.00 61 1007.6
20260504043203 49 294 2.0 4.0 0.00 0.00 0.00 61 1007.5
20260504043003 50 294 3.0 4.0 0.00 0.00 0.00 61 1007.5
20260504042803 49 292 2.0 4.0 0.00 0.00 0.00 61 1007.6
20260504042603 50 292 3.0 6.0 0.00 0.00 0.00 61 1007.6
20260504042403 50 292 3.0 6.0 0.00 0.00 0.00 61 1007.6
20260504042203 50 293 3.0 6.0 0.00 0.00 0.00 61 1007.7
20260504042003 50 293 3.0 6.0 0.00 0.00 0.00 61 1007.7
20260504041803 50 293 3.0 6.0 0.00 0.00 0.00 61 1007.7
20260504041624 50 292 3.0 6.0 0.00 0.00 0.00 61 1007.8
20260504041404 50 292 2.0 5.0 0.00 0.00 0.00 61 1007.8
20260504041203 50 292 3.0 5.0 0.00 0.00 0.00 61 1007.8
20260504041003 50 292 2.0 7.0 0.00 0.00 0.00 60 1007.8
20260504040803 50 293 3.0 7.0 0.00 0.00 0.00 61 1007.7
20260504040603 50 293 3.0 7.0 0.00 0.00 0.00 60 1007.8
20260504040424 50 293 3.0 7.0 0.00 0.00 0.00 60 1007.8
20260504040203 50 295 3.0 7.0 0.00 0.00 0.00 60 1007.7
20260504040004 50 294 3.0 6.0 0.00 0.00 0.00 60 1007.7
20260504035803 50 295 3.0 6.0 0.00 0.00 0.00 60 1007.7
20260504035603 50 295 3.0 6.0 0.00 0.00 0.00 60 1007.8
20260504035403 50 295 3.0 5.0 0.00 0.00 0.00 60 1007.8
20260504035203 50 294 3.0 5.0 0.00 0.00 0.00 60 1007.8
20260504035003 50 295 3.0 6.0 0.00 0.00 0.00 60 1007.8
20260504034803 50 295 3.0 6.0 0.00 0.00 0.00 60 1007.8
20260504034603 50 294 3.0 6.0 0.00 0.00 0.00 60 1007.8
20260504034403 50 295 3.0 6.0 0.00 0.00 0.00 60 1007.8
20260504034224 50 295 3.0 6.0 0.00 0.00 0.00 60 1007.8
20260504034024 50 296 3.0 6.0 0.00 0.00 0.00 60 1007.9
20260504033803 50 295 3.0 8.0 0.00 0.00 0.00 60 1007.9
20260504033603 50 296 3.0 8.0 0.00 0.00 0.00 60 1007.9
20260504033403 50 295 3.0 8.0 0.00 0.00 0.00 60 1007.9
20260504033203 50 294 3.0 8.0 0.00 0.00 0.00 60 1007.8
20260504033003 50 294 3.0 8.0 0.00 0.00 0.00 60 1007.8
20260504032824 50 294 3.0 7.0 0.00 0.00 0.00 60 1007.8
20260504032603 50 293 3.0 7.0 0.00 0.00 0.00 60 1007.8
20260504032403 50 295 3.0 7.0 0.00 0.00 0.00 60 1007.8
20260504032203 50 295 3.0 7.0 0.00 0.00 0.00 60 1007.8
20260504032024 50 295 3.0 7.0 0.00 0.00 0.00 60 1007.9
20260504031803 50 295 3.0 7.0 0.00 0.00 0.00 59 1007.9
20260504031603 50 296 3.0 7.0 0.00 0.00 0.00 60 1007.9
20260504031403 50 294 3.0 8.0 0.00 0.00 0.00 60 1008.0
20260504031203 50 293 3.0 8.0 0.00 0.00 0.00 60 1008.0
20260504031024 50 293 4.0 8.0 0.00 0.00 0.00 59 1008.0
20260504030803 50 293 4.0 8.0 0.00 0.00 0.00 59 1008.0
20260504030603 50 291 4.0 8.0 0.00 0.00 0.00 59 1008.0
20260504030403 50 291 4.0 8.0 0.00 0.00 0.00 59 1007.9
20260504030203 50 291 4.0 8.0 0.00 0.00 0.00 59 1008.0
20260504030003 50 290 3.0 8.0 0.00 0.00 0.00 59 1008.0
20260504025803 50 291 3.0 8.0 0.00 0.00 0.00 60 1008.1
20260504025603 50 291 3.0 8.0 0.00 0.00 0.00 60 1008.1
20260504025403 50 293 3.0 8.0 0.00 0.00 0.00 59 1008.1
20260504025203 50 294 3.0 8.0 0.00 0.00 0.00 59 1008.1
20260504025024 50 294 3.0 8.0 0.00 0.00 0.00 59 1008.1
20260504024824 50 293 3.0 8.0 0.00 0.00 0.00 59 1008.1
20260504024603 50 293 3.0 8.0 0.00 0.00 0.00 59 1008.2
20260504024403 50 293 3.0 8.0 0.00 0.00 0.00 59 1008.2
20260504024203 50 293 3.0 8.0 0.00 0.00 0.00 59 1008.1
20260504024024 50 293 3.0 8.0 0.00 0.00 0.00 59 1008.2
20260504023803 50 294 4.0 11.0 0.00 0.00 0.00 59 1008.1
20260504023603 50 295 4.0 11.0 0.00 0.00 0.00 59 1008.1
20260504023424 50 294 4.0 11.0 0.00 0.00 0.00 59 1008.1
20260504023203 50 294 4.0 11.0 0.00 0.00 0.00 59 1008.1
20260504023003 50 294 4.0 11.0 0.00 0.00 0.00 59 1008.1
20260504022803 50 294 4.0 8.0 0.00 0.00 0.00 59 1008.1
20260504022603 50 294 4.0 8.0 0.00 0.00 0.00 59 1008.1
20260504022403 50 294 4.0 7.0 0.00 0.00 0.00 59 1008.1
20260504022224 50 294 4.0 11.0 0.00 0.00 0.00 59 1008.1
20260504022003 50 294 4.0 11.0 0.00 0.00 0.00 58 1008.1
20260504021803 50 292 4.0 11.0 0.00 0.00 0.00 58 1008.1
20260504021603 50 292 4.0 11.0 0.00 0.00 0.00 58 1008.1
20260504021403 50 293 4.0 11.0 0.00 0.00 0.00 58 1008.1
20260504021203 50 293 4.0 8.0 0.00 0.00 0.00 58 1008.0
20260504021003 50 293 4.0 8.0 0.00 0.00 0.00 59 1008.1
20260504020803 50 294 4.0 7.0 0.00 0.00 0.00 58 1008.1
20260504020603 51 295 4.0 8.0 0.00 0.00 0.00 58 1008.0
20260504020403 51 295 4.0 8.0 0.00 0.00 0.00 58 1008.0
20260504020203 51 293 4.0 8.0 0.00 0.00 0.00 58 1008.0
20260504020003 51 294 3.0 8.0 0.00 0.00 0.00 58 1008.0
20260504015824 51 292 3.0 8.0 0.00 0.00 0.00 58 1008.0
20260504015603 51 292 3.0 7.0 0.00 0.00 0.00 58 1008.0
20260504015403 51 292 3.0 7.0 0.00 0.00 0.00 58 1008.1
20260504015203 51 292 3.0 7.0 0.00 0.00 0.00 58 1008.0
20260504015003 51 290 3.0 8.0 0.00 0.00 0.00 58 1008.0
20260504014824 51 291 3.0 8.0 0.00 0.00 0.00 58 1008.1
20260504014624 51 288 4.0 9.0 0.00 0.00 0.00 58 1008.0
20260504014403 51 288 4.0 9.0 0.00 0.00 0.00 58 1008.2
20260504014203 51 289 4.0 9.0 0.00 0.00 0.00 58 1008.1
20260504014024 51 289 4.0 9.0 0.00 0.00 0.00 58 1008.1
20260504013824 51 290 4.0 9.0 0.00 0.00 0.00 58 1008.1
20260504013624 51 293 3.0 9.0 0.00 0.00 0.00 58 1008.1
20260504013403 51 295 3.0 8.0 0.00 0.00 0.00 58 1008.1
20260504013203 51 294 4.0 8.0 0.00 0.00 0.00 58 1008.1
20260504013003 51 294 3.0 8.0 0.00 0.00 0.00 58 1008.2
20260504012803 51 294 3.0 7.0 0.00 0.00 0.00 58 1008.2
20260504012603 51 293 3.0 7.0 0.00 0.00 0.00 57 1008.2
20260504012403 51 293 3.0 7.0 0.00 0.00 0.00 57 1008.2
20260504012203 51 293 3.0 6.0 0.00 0.00 0.00 57 1008.3
20260504012003 51 294 3.0 6.0 0.00 0.00 0.00 57 1008.2
20260504011803 51 293 4.0 7.0 0.00 0.00 0.00 57 1008.3
20260504011624 51 292 4.0 9.0 0.00 0.00 0.00 57 1008.3
20260504011403 51 292 4.0 9.0 0.00 0.00 0.00 57 1008.3
20260504011224 51 292 3.0 9.0 0.00 0.00 0.00 57 1008.3
20260504011024 52 293 3.0 9.0 0.00 0.00 0.00 57 1008.2
20260504010803 52 293 3.0 9.0 0.00 0.00 0.00 56 1008.3
20260504010603 52 295 3.0 8.0 0.00 0.00 0.00 57 1008.3
20260504010403 52 294 3.0 8.0 0.00 0.00 0.00 56 1008.2
20260504010204 52 295 3.0 8.0 0.00 0.00 0.00 57 1008.2
20260504010024 52 295 4.0 8.0 0.00 0.00 0.00 56 1008.3
20260504005803 52 294 3.0 7.0 0.00 0.00 0.00 56 1008.3
20260504005603 52 294 4.0 7.0 0.00 0.00 0.00 56 1008.3
20260504005403 52 295 4.0 7.0 0.00 0.00 0.00 56 1008.3
20260504005203 52 295 4.0 7.0 0.00 0.00 0.00 56 1008.3
20260504005004 52 293 3.0 7.0 0.00 0.00 0.00 55 1008.4
20260504004803 52 293 4.0 7.0 0.00 0.00 0.00 55 1008.3
20260504004603 52 293 4.0 8.0 0.00 0.00 0.00 55 1008.3
20260504004424 52 292 4.0 8.0 0.00 0.00 0.00 55 1008.3
20260504004203 52 292 4.0 8.0 0.00 0.00 0.00 55 1008.3
20260504004003 52 292 4.0 9.0 0.00 0.00 0.00 54 1008.5
20260504003824 52 293 4.0 9.0 0.00 0.00 0.00 55 1008.4
20260504003624 52 293 4.0 9.0 0.00 0.00 0.00 54 1008.4
20260504003403 52 293 5.0 9.0 0.00 0.00 0.00 54 1008.5
20260504003203 52 293 5.0 11.0 0.00 0.00 0.00 54 1008.5
20260504003024 53 293 5.0 11.0 0.00 0.00 0.00 54 1008.5
20260504002803 53 293 6.0 11.0 0.00 0.00 0.00 53 1008.5
20260504002603 53 293 6.0 11.0 0.00 0.00 0.00 53 1008.6
20260504002403 53 293 6.0 11.0 0.00 0.00 0.00 53 1008.5
20260504002224 53 293 6.0 11.0 0.00 0.00 0.00 53 1008.6
20260504002003 53 293 6.0 10.0 0.00 0.00 0.00 53 1008.5
20260504001803 53 294 5.0 10.0 0.00 0.00 0.00 53 1008.6
20260504001603 53 295 5.0 10.0 0.00 0.00 0.00 52 1008.6
20260504001403 53 295 5.0 9.0 0.00 0.00 0.00 52 1008.6
20260504001203 54 295 5.0 9.0 0.00 0.00 0.00 52 1008.6
20260504001024 54 294 5.0 9.0 0.00 0.00 0.00 51 1008.6
20260504000803 54 293 5.0 9.0 0.00 0.00 0.00 52 1008.7
20260504000603 54 292 5.0 8.0 0.00 0.00 0.00 51 1008.7
20260504000403 54 292 4.0 9.0 0.00 0.00 0.00 51 1008.7
20260504000204 54 292 4.0 9.0 0.00 0.00 0.00 51 1008.7
20260504000003 54 293 4.0 9.0 0.00 0.00 0.00 51 1008.7
20260503235803 54 294 4.0 9.0 0.00 0.00 0.00 51 1008.8
20260503235624 54 294 4.0 9.0 0.00 0.00 0.00 51 1008.8
20260503235424 54 295 5.0 12.0 0.00 0.00 0.00 51 1008.8
20260503235203 54 294 5.0 12.0 0.00 0.00 0.00 51 1008.8
20260503235024 54 294 6.0 12.0 0.00 0.00 0.00 51 1008.8
20260503234803 54 294 6.0 12.0 0.00 0.00 0.00 50 1008.8
20260503234624 54 294 6.0 12.0 0.00 0.00 0.00 50 1008.9
20260503234403 54 294 6.0 10.0 0.00 0.00 0.00 50 1008.9
20260503234203 54 294 5.0 10.0 0.00 0.00 0.00 49 1008.9
20260503234003 54 294 5.0 10.0 0.00 0.00 0.00 51 1009.0
20260503233824 55 294 5.0 10.0 0.00 0.00 0.00 49 1009.0
20260503233603 55 295 4.0 8.0 0.00 0.00 0.00 50 1008.9
20260503233403 55 294 5.0 10.0 0.00 0.00 0.00 51 1009.0
20260503233224 54 294 5.0 10.0 0.00 0.00 0.00 51 1008.9
20260503233003 54 294 5.0 10.0 0.00 0.00 0.00 51 1009.0
20260503232803 54 293 5.0 10.0 0.00 0.00 0.00 51 1009.0
20260503232624 54 291 5.0 10.0 0.00 0.00 0.00 51 1009.1
20260503232403 54 292 5.0 8.0 0.00 0.00 0.00 52 1009.1
20260503232203 54 292 5.0 9.0 0.00 0.00 0.00 52 1009.2
20260503232003 54 291 5.0 11.0 0.00 0.00 0.00 51 1009.2
20260503231824 54 292 6.0 11.0 0.00 0.00 0.00 51 1009.3
20260503231624 54 292 5.0 11.0 0.00 0.00 0.00 51 1009.3
20260503231424 55 292 6.0 11.0 0.00 0.00 0.00 51 1009.3
20260503231203 55 293 6.0 11.0 0.00 0.00 0.00 50 1009.3
20260503231003 55 294 6.0 11.0 0.00 0.00 0.00 50 1009.3
20260503230803 55 294 6.0 11.0 0.00 0.00 0.00 50 1009.2
20260503230603 55 293 6.0 11.0 0.00 0.00 0.00 51 1009.4
20260503230403 55 292 6.0 11.0 0.00 0.00 0.00 51 1009.5
20260503230224 55 291 6.0 10.0 0.00 0.00 0.00 50 1009.5
20260503230003 55 291 5.0 10.0 0.00 0.00 0.00 51 1009.6
20260503225824 54 292 5.0 10.0 0.00 0.00 0.00 51 1009.6
20260503225603 54 291 5.0 10.0 0.00 0.00 0.00 51 1009.6
20260503225403 54 292 5.0 10.0 0.00 0.00 0.00 51 1009.7
20260503225203 54 292 5.0 10.0 0.00 0.00 0.00 53 1009.6
20260503225024 54 292 5.0 10.0 0.00 0.00 0.00 54 1009.6
20260503224803 53 292 5.0 10.0 0.00 0.00 0.00 52 1009.7
20260503224603 53 293 5.0 10.0 0.00 0.00 0.00 53 1009.7
20260503224403 53 292 4.0 10.0 0.00 0.00 0.00 53 1009.8
20260503224203 53 292 4.0 10.0 0.00 0.00 0.00 52 1009.8
20260503224003 53 292 4.0 8.0 0.00 0.00 0.00 54 1009.8
20260503223803 53 291 4.0 9.0 0.00 0.00 0.00 54 1009.9
20260503223603 53 292 4.0 9.0 0.00 0.00 0.00 55 1009.9
20260503223403 53 292 4.0 9.0 0.00 0.00 0.00 54 1009.9
20260503223203 53 293 4.0 9.0 0.00 0.00 0.00 54 1009.9
20260503223003 52 294 5.0 9.0 0.00 0.00 0.00 55 1010.0
20260503222803 52 294 5.0 10.0 0.00 0.00 0.00 54 1010.0
20260503222603 52 294 5.0 10.0 0.00 0.00 0.00 54 1010.0
20260503222424 52 294 5.0 10.0 0.00 0.00 0.00 55 1010.1
20260503222203 52 294 5.0 10.0 0.00 0.00 0.00 54 1010.1
20260503222024 52 294 5.0 10.0 0.00 0.00 0.00 54 1010.2
20260503221824 52 295 5.0 9.0 0.00 0.00 0.00 55 1010.2
20260503221603 52 295 6.0 9.0 0.00 0.00 0.00 55 1010.3
20260503221403 52 294 6.0 9.0 0.00 0.00 0.00 55 1010.3
20260503221203 52 293 6.0 10.0 0.00 0.00 0.00 55 1010.3
20260503221003 52 293 6.0 10.0 0.00 0.00 0.00 54 1010.4
20260503220824 52 292 5.0 10.0 0.00 0.00 0.00 54 1010.4
20260503220624 52 292 5.0 10.0 0.00 0.00 0.00 54 1010.3
20260503220424 52 294 5.0 11.0 0.00 0.00 0.00 54 1010.4
20260503220203 52 294 6.0 11.0 0.00 0.00 0.00 55 1010.5
20260503220004 52 294 6.0 14.0 0.00 0.00 0.00 54 1010.4
20260503215803 52 295 7.0 14.0 0.00 0.00 0.00 54 1010.4
20260503215603 52 297 7.0 14.0 0.00 0.00 0.00 54 1010.5
20260503215403 52 298 7.0 14.0 0.00 0.00 0.00 54 1010.5
20260503215224 52 299 7.0 14.0 0.00 0.00 0.00 54 1010.6
20260503215003 52 301 7.0 12.0 0.00 0.00 0.00 54 1010.7
20260503214803 52 300 6.0 12.0 0.00 0.00 0.00 54 1010.7
20260503214603 52 299 6.0 11.0 0.00 0.00 0.00 54 1010.7
20260503214424 52 297 6.0 12.0 0.00 0.00 0.00 54 1010.7
20260503214203 52 300 7.0 12.0 0.00 0.00 0.00 54 1010.7
20260503214003 52 301 7.0 15.0 0.00 0.00 0.00 54 1010.6
20260503213803 52 302 8.0 15.0 0.00 0.00 0.00 54 1010.6
20260503213603 52 303 9.0 15.0 0.00 0.00 0.00 54 1010.7
20260503213403 52 303 9.0 15.0 0.00 0.00 0.00 54 1010.7
20260503213203 52 302 9.0 15.0 0.00 0.00 0.00 54 1010.8
20260503213003 52 303 9.0 15.0 0.00 0.00 0.00 54 1010.8
20260503212803 52 303 9.0 15.0 0.00 0.00 0.00 54 1010.8
20260503212603 52 303 8.0 15.0 0.00 0.00 0.00 53 1010.8
20260503212403 52 304 8.0 15.0 0.00 0.00 0.00 53 1010.9
20260503212203 52 303 8.0 14.0 0.00 0.00 0.00 54 1010.8
20260503212003 52 302 8.0 14.0 0.00 0.00 0.00 55 1010.8
20260503211803 52 302 9.0 14.0 0.00 0.00 0.00 54 1010.8
20260503211624 53 302 9.0 14.0 0.00 0.00 0.00 53 1010.9
20260503211424 53 302 9.0 14.0 0.00 0.00 0.00 53 1010.8
20260503211203 53 304 8.0 14.0 0.00 0.00 0.00 53 1010.8
20260503211003 53 305 9.0 14.0 0.00 0.00 0.00 52 1010.8
20260503210824 53 306 9.0 17.0 0.00 0.00 0.00 52 1010.8
20260503210603 53 308 10.0 17.0 0.00 0.00 0.00 52 1010.9
20260503210424 53 309 10.0 17.0 0.00 0.00 0.00 53 1010.9
20260503210203 53 308 11.0 20.0 0.00 0.00 0.00 52 1010.8
20260503210003 53 306 11.0 20.0 0.00 0.00 0.00 51 1010.9
20260503205824 53 305 11.0 20.0 0.00 0.00 0.00 51 1010.9
20260503205603 54 303 11.0 20.0 0.00 0.00 0.00 50 1010.9
20260503205403 54 302 11.0 20.0 0.00 0.00 0.00 51 1010.9
20260503205203 54 304 11.0 20.0 0.00 0.00 0.00 50 1010.9
20260503205003 54 305 10.0 20.0 0.00 0.00 0.00 50 1011.0
20260503204803 54 308 10.0 16.0 0.00 0.00 0.00 51 1011.0
20260503204603 54 310 10.0 16.0 0.00 0.00 0.00 51 1011.0
20260503204403 54 310 10.0 16.0 0.00 0.00 0.00 51 1011.1
20260503204203 54 309 10.0 19.0 0.00 0.00 0.00 49 1011.1
20260503204003 54 309 11.0 19.0 0.00 0.00 0.00 51 1011.1
20260503203803 54 309 11.0 19.0 0.00 0.00 0.00 49 1011.1
20260503203603 54 308 11.0 19.0 0.00 0.00 0.00 49 1011.0
20260503203403 54 309 12.0 19.0 0.00 0.00 0.00 48 1011.1
20260503203203 55 309 12.0 20.0 0.00 0.00 0.00 49 1011.1
20260503203003 55 310 12.0 20.0 0.00 0.00 0.00 49 1011.0
20260503202803 55 311 13.0 20.0 0.00 0.00 0.00 47 1011.0
20260503202603 55 310 13.0 20.0 0.00 0.00 0.00 47 1011.1
20260503202403 56 309 13.0 25.0 0.00 0.00 0.00 46 1011.1
20260503202224 56 309 13.0 25.0 0.00 0.00 0.00 46 1011.1
20260503202024 56 313 12.0 25.0 0.00 0.00 0.00 44 1011.1
20260503201803 57 312 11.0 25.0 0.00 0.00 0.00 44 1011.1
20260503201603 57 313 12.0 25.0 0.00 0.00 0.00 44 1011.1
20260503201403 57 315 11.0 21.0 0.00 0.00 0.00 45 1011.1
20260503201203 57 316 12.0 21.0 0.00 0.00 0.00 44 1011.0
20260503201003 58 313 12.0 23.0 0.00 0.00 0.00 44 1011.0
20260503200824 58 314 12.0 23.0 0.00 0.00 0.00 44 1011.0
20260503200603 58 313 12.0 23.0 0.00 0.00 0.00 44 1010.9
20260503200424 58 313 12.0 23.0 0.00 0.00 0.00 43 1010.9
20260503200203 58 316 11.0 23.0 0.00 0.00 0.00 43 1010.9
20260503200003 58 319 11.0 22.0 0.00 0.00 0.00 41 1011.0
20260503195824 59 321 11.0 22.0 0.00 0.00 0.00 40 1010.9
20260503195603 59 325 10.0 18.0 0.00 0.00 0.00 40 1010.8
20260503195403 59 327 10.0 18.0 0.00 0.00 0.00 41 1010.8
20260503195203 59 324 10.0 18.0 0.00 0.00 0.00 41 1010.8
20260503195003 59 321 10.0 18.0 0.00 0.00 0.00 40 1010.8
20260503194824 59 323 10.0 18.0 0.00 0.00 0.00 39 1010.9
20260503194603 59 319 11.0 19.0 0.00 0.00 0.00 39 1010.9
20260503194403 59 319 11.0 20.0 0.00 0.00 0.00 39 1010.9
20260503194203 59 318 10.0 20.0 0.00 0.00 0.00 39 1010.9
20260503194003 59 316 10.0 20.0 0.00 0.00 0.00 40 1010.9
20260503193824 59 312 10.0 20.0 0.00 0.00 0.00 38 1010.9
20260503193603 59 310 10.0 20.0 0.00 0.00 0.00 37 1010.8
20260503193403 59 309 10.0 18.0 0.00 0.00 0.00 37 1010.9
20260503193203 59 306 10.0 18.0 0.00 0.00 0.00 38 1010.8
20260503193003 59 306 11.0 17.0 0.00 0.00 0.00 38 1010.9
20260503192824 59 306 11.0 17.0 0.00 0.00 0.00 38 1010.9
20260503192603 59 306 11.0 17.0 0.00 0.00 0.00 38 1011.0
20260503192403 60 305 11.0 24.0 0.00 0.00 0.00 37 1011.0
20260503192203 60 305 11.0 24.0 0.00 0.00 0.00 39 1011.0
20260503192003 60 304 11.0 24.0 0.00 0.00 0.00 40 1011.0
20260503191803 60 304 11.0 24.0 0.00 0.00 0.00 37 1011.0
20260503191624 60 303 11.0 24.0 0.00 0.00 0.00 35 1011.1
20260503191424 61 303 11.0 19.0 0.00 0.00 0.00 37 1011.0
20260503191203 61 304 11.0 19.0 0.00 0.00 0.00 37 1010.9
20260503191003 61 306 10.0 19.0 0.00 0.00 0.00 36 1011.0
20260503190803 61 307 10.0 19.0 0.00 0.00 0.00 34 1011.1
20260503190603 61 306 9.0 19.0 0.00 0.00 0.00 37 1011.1
20260503190403 60 307 9.0 17.0 0.00 0.00 0.00 36 1011.1
20260503190203 60 308 9.0 17.0 0.00 0.00 0.00 36 1011.1
20260503190004 60 307 9.0 17.0 0.00 0.00 0.00 37 1011.1
20260503185824 60 307 10.0 17.0 0.00 0.00 0.00 37 1011.2
20260503185603 61 310 10.0 18.0 0.00 0.00 0.00 34 1011.1
20260503185403 61 308 9.0 18.0 0.00 0.00 0.00 37 1011.2
20260503185224 61 310 9.0 18.0 0.00 0.00 0.00 37 1011.2
20260503185003 61 313 9.0 18.0 0.00 0.00 0.00 35 1011.2
20260503184824 61 314 9.0 18.0 0.00 0.00 0.00 34 1011.2
20260503184603 61 312 9.0 20.0 0.00 0.00 0.00 34 1011.2
20260503184403 61 313 9.0 20.0 0.00 0.00 0.00 37 1011.2
20260503184203 61 314 8.0 20.0 0.00 0.00 0.00 37 1011.3
20260503184003 61 314 8.0 20.0 0.00 0.00 0.00 34 1011.3
20260503183824 61 313 8.0 20.0 0.00 0.00 0.00 37 1011.3
20260503183603 61 314 8.0 16.0 0.00 0.00 0.00 37 1011.3
20260503183403 60 313 10.0 18.0 0.00 0.00 0.00 37 1011.2
20260503183203 61 309 10.0 21.0 0.00 0.00 0.00 34 1011.3
20260503183003 61 306 11.0 21.0 0.00 0.00 0.00 33 1011.3
20260503182803 61 306 12.0 21.0 0.00 0.00 0.00 33 1011.4
20260503182603 62 306 12.0 21.0 0.00 0.00 0.00 35 1011.6
20260503182403 62 306 12.0 21.0 0.00 0.00 0.00 36 1011.5
20260503182203 62 305 11.0 18.0 0.00 0.00 0.00 35 1011.5
20260503182004 62 307 11.0 18.0 0.00 0.00 0.00 35 1011.5
20260503181803 62 310 11.0 18.0 0.00 0.00 0.00 36 1011.5
20260503181624 61 310 11.0 18.0 0.00 0.00 0.00 36 1011.5
20260503181403 62 310 10.0 18.0 0.00 0.00 0.00 34 1011.6
20260503181203 61 311 10.0 18.0 0.00 0.00 0.00 37 1011.6
20260503181003 61 310 10.0 18.0 0.00 0.00 0.00 37 1011.6
20260503180803 61 308 10.0 18.0 0.00 0.00 0.00 35 1011.7
20260503180603 61 310 10.0 16.0 0.00 0.00 0.00 36 1011.8
20260503180403 61 315 11.0 20.0 0.00 0.00 0.00 34 1011.9
20260503180203 61 316 11.0 20.0 0.00 0.00 0.00 36 1011.9
20260503180004 60 315 12.0 22.0 0.00 0.00 0.00 35 1012.0
20260503175824 60 315 12.0 22.0 0.00 0.00 0.00 35 1011.9
20260503175603 60 311 13.0 22.0 0.00 0.00 0.00 34 1012.1
20260503175403 60 308 13.0 22.0 0.00 0.00 0.00 34 1012.2
20260503175203 60 306 13.0 22.0 0.00 0.00 0.00 33 1012.2
20260503175003 60 308 12.0 21.0 0.00 0.00 0.00 36 1012.2
20260503174824 60 310 12.0 21.0 0.00 0.00 0.00 36 1012.3
20260503174603 60 312 10.0 21.0 0.00 0.00 0.00 35 1012.3
20260503174403 60 316 9.0 21.0 0.00 0.00 0.00 37 1012.2
20260503174203 60 321 8.0 19.0 0.00 0.00 0.00 35 1012.2
20260503174003 60 317 9.0 19.0 0.00 0.00 0.00 38 1012.2
20260503173824 60 312 9.0 19.0 0.00 0.00 0.00 36 1012.4
20260503173603 60 311 9.0 19.0 0.00 0.00 0.00 37 1012.4
20260503173403 59 309 9.0 19.0 0.00 0.00 0.00 38 1012.4
20260503173203 59 307 10.0 18.0 0.00 0.00 0.00 38 1012.4
20260503173003 59 308 10.0 19.0 0.00 0.00 0.00 38 1012.5
20260503172803 58 310 10.0 19.0 0.00 0.00 0.00 39 1012.6
20260503172603 58 312 11.0 19.0 0.00 0.00 0.00 38 1012.5
20260503172403 58 312 11.0 19.0 0.00 0.00 0.00 37 1012.7
20260503172203 58 312 11.0 19.0 0.00 0.00 0.00 37 1012.7
20260503172003 58 311 10.0 18.0 0.00 0.00 0.00 37 1012.7
20260503171803 58 312 10.0 19.0 0.00 0.00 0.00 38 1012.7
20260503171603 58 308 10.0 19.0 0.00 0.00 0.00 39 1012.7
20260503171403 58 306 10.0 19.0 0.00 0.00 0.00 39 1012.9
20260503171203 58 307 10.0 19.0 0.00 0.00 0.00 39 1012.9
20260503171003 58 309 10.0 19.0 0.00 0.00 0.00 39 1012.9
20260503170824 58 308 11.0 19.0 0.00 0.00 0.00 37 1012.9
20260503170603 58 310 10.0 17.0 0.00 0.00 0.00 37 1012.9
20260503170424 58 310 11.0 17.0 0.00 0.00 0.00 39 1013.0
20260503170203 58 309 11.0 18.0 0.00 0.00 0.00 38 1013.0
20260503160203 56 307 8.0 14.0 0.00 0.00 0.00 44 1013.4
20260503151003 53 305 7.0 13.0 0.00 0.00 0.00 42 1014.0
20260503150824 53 305 7.0 13.0 0.00 0.00 0.00 41 1014.0
20260503150603 53 306 8.0 14.0 0.00 0.00 0.00 42 1014.0
20260503150424 53 306 8.0 14.0 0.00 0.00 0.00 42 1014.0
20260503150224 53 307 8.0 14.0 0.00 0.00 0.00 45 1014.0